Weather History for Montague, CA

Change the Weather History Date:

Wednesday, February 15, 2012

  Actual Average Record
Temperature  
Mean Temperature 34 °F 39 °F  
Max Temperature 47 °F 51 °F 67 °F (1996)
Min Temperature 21 °F 28 °F 10 °F (1990)
Degree Days  
Heating Degree Days 31 26  
Month to date heating degree days 386 409  
Since 1 July heating degree days 3528 3561  
Cooling Degree Days 0 0  
Month to date cooling degree days 0 0  
Year to date cooling degree days 0 0  
Moisture  
Dew Point 23 °F    
Average Humidity 69    
Maximum Humidity 92    
Minimum Humidity 38    
Precipitation  
Precipitation 0.00 in 0.07 in 0.61 in (1958)
Month to date precipitation 0.41 0.98  
Year to date precipitation 2.59 3.18  
Sea Level Pressure  
Sea Level Pressure 30.32 in    
Wind  
Wind Speed 5 mph (North)    
Max Wind Speed 23 mph    
Max Gust Speed 30 mph    
Visibility 10 miles    
Events      
T = Trace of Precipitation, MM = Missing Value Source: NWS Daily Summary

Daily Weather History Graph

Daily Weather History Graph

Search for Another Location

Airport:

Trip Planner

Search our weather history database for the weather conditions in past years. The results will help you decide how hot, cold, wet, or windy it might be!

Date:

Astronomy

Feb. 15, 2012 Rise Set
Actual Time 7:05 AM PST 5:42 PM PST
Civil Twilight 6:37 AM PST 6:11 PM PST
Nautical Twilight 6:04 AM PST 6:43 PM PST
Astronomical Twilight 5:32 AM PST 7:16 PM PST
Moon 2:07 AM PST (2/15) 11:40 AM PST (2/15)
Length of Visible Light 11h 33m
Length of Day
10h 36m
Last Quarter, 38% of the Moon is Illuminated
Feb 15
Last Quarter
Feb 21
New
Feb 29
First Quarter
Mar 8
Full
Mar 14
Last Quarter

Hourly Weather History & Observations

Time (PST) Temp. Windchill Dew Point Humidity Pressure Visibility Wind Dir Wind Speed Gust Speed Precip Events Conditions
12:53 AM 30.9 °F 22.8 °F 23.0 °F 72% 30.18 in 10.0 mi NNW 9.2 mph - N/A   Partly Cloudy
1:53 AM 30.9 °F 26.2 °F 21.9 °F 69% 30.20 in 10.0 mi North 4.6 mph - N/A   Overcast
2:53 AM 32.0 °F 20.5 °F 23.0 °F 69% 30.25 in 10.0 mi NNW 18.4 mph 29.9 mph N/A   Mostly Cloudy
3:53 AM 30.9 °F 23.5 °F 23.0 °F 72% 30.26 in 10.0 mi North 8.1 mph - N/A   Mostly Cloudy
4:53 AM 30.0 °F - 24.1 °F 79% 30.26 in 10.0 mi Calm Calm - N/A   Overcast
5:53 AM 23.0 °F 18.4 °F 19.9 °F 88% 30.30 in 10.0 mi North 3.5 mph - N/A   Clear
6:53 AM 26.1 °F - 19.9 °F 78% 30.33 in 10.0 mi Calm Calm - N/A   Clear
7:53 AM 27.0 °F 21.6 °F 21.0 °F 78% 30.35 in 10.0 mi NNE 4.6 mph - N/A   Clear
8:53 AM 30.0 °F 25.2 °F 23.0 °F 75% 30.36 in 10.0 mi North 4.6 mph - N/A   Clear
9:53 AM 32.0 °F - 23.0 °F 69% 30.36 in 10.0 mi Calm Calm - N/A   Clear
11:53 AM 37.9 °F 34.4 °F 26.1 °F 62% 30.36 in 10.0 mi ENE 4.6 mph - N/A   Clear
12:53 PM 39.9 °F 37.8 °F 21.9 °F 49% 30.32 in 10.0 mi East 3.5 mph - N/A   Clear
1:53 PM 42.1 °F 39.2 °F 23.0 °F 47% 30.31 in 10.0 mi NNE 4.6 mph - N/A   Clear
2:53 PM 43.0 °F 40.3 °F 24.1 °F 47% 30.29 in 10.0 mi WSW 4.6 mph - N/A   Clear
3:53 PM 46.0 °F 42.5 °F 23.0 °F 40% 30.29 in 10.0 mi North 6.9 mph - N/A   Clear
4:53 PM 46.0 °F 44.8 °F 24.1 °F 42% 30.29 in 10.0 mi WNW 3.5 mph - N/A   Clear
5:53 PM 39.0 °F 35.7 °F 26.1 °F 60% 30.32 in 10.0 mi West 4.6 mph - N/A   Clear
6:53 PM 32.0 °F 28.7 °F 25.0 °F 75% 30.36 in 10.0 mi SSE 3.5 mph - N/A   Clear
7:53 PM 28.9 °F - 24.1 °F 82% 30.38 in 10.0 mi Calm Calm - N/A   Clear
8:53 PM 30.0 °F 26.5 °F 25.0 °F 82% 30.40 in 10.0 mi East 3.5 mph - N/A   Clear
9:53 PM 27.0 °F 23.0 °F 24.1 °F 89% 30.40 in 10.0 mi NE 3.5 mph - N/A   Clear
10:53 PM 27.0 °F - 23.0 °F 85% 30.40 in 10.0 mi Calm Calm - N/A   Clear
11:53 PM 28.0 °F 20.0 °F 25.0 °F 88% 30.41 in 10.0 mi NE 8.1 mph - N/A   Clear